Time,TemperatureF,DewpointF,PressureIn,WindDirection,WindDirectionDegrees,WindSpeedMPH,WindSpeedGustMPH,Humidity,HourlyPrecipIn,Conditions,Clouds,dailyrainin,SolarRadiationWatts/m^2,SoftwareType,DateUTC
2013-06-19 00:02:00,60.0,60.0,-100.00,North,0,0.0,0.0,100,0.00,,,0.02,0.000000,,2013-06-19 04:02:00,
2013-06-19 00:33:00,60.0,60.0,-100.00,North,0,2.0,5.0,100,0.00,,,0.02,0.000000,,2013-06-19 04:33:00,
2013-06-19 00:43:00,60.0,60.0,-100.00,North,0,2.0,5.0,100,0.00,,,0.02,0.000000,,2013-06-19 04:43:00,
2013-06-19 00:53:00,60.0,60.0,-100.00,North,0,2.0,5.0,100,0.00,,,0.02,0.000000,,2013-06-19 04:53:00,
2013-06-19 01:01:00,60.0,60.0,-100.00,North,0,2.0,5.0,100,0.00,,,0.02,0.000000,,2013-06-19 05:01:00,
2013-06-19 01:32:00,59.0,59.0,-100.00,North,0,3.0,8.0,100,0.00,,,0.02,0.000000,,2013-06-19 05:32:00,
2013-06-19 01:43:00,59.0,59.0,-100.00,North,0,3.0,8.0,100,0.00,,,0.02,0.000000,,2013-06-19 05:43:00,
2013-06-19 01:52:00,59.0,59.0,-100.00,North,0,3.0,8.0,100,0.00,,,0.02,0.000000,,2013-06-19 05:52:00,
2013-06-19 02:02:00,59.0,59.0,-100.00,North,0,3.0,8.0,100,0.00,,,0.02,0.000000,,2013-06-19 06:02:00,
2013-06-19 02:34:00,58.0,58.0,-100.00,North,0,1.0,9.0,100,0.00,,,0.02,0.000000,,2013-06-19 06:34:00,
2013-06-19 02:43:00,58.0,58.0,-100.00,North,0,1.0,9.0,100,0.00,,,0.02,0.000000,,2013-06-19 06:43:00,
2013-06-19 02:52:00,58.0,58.0,-100.00,North,0,1.0,9.0,100,0.00,,,0.02,0.000000,,2013-06-19 06:52:00,
2013-06-19 03:01:00,58.0,58.0,-100.00,North,0,1.0,9.0,100,0.00,,,0.02,0.000000,,2013-06-19 07:01:00,
2013-06-19 03:33:00,58.0,58.0,-100.00,North,0,1.0,5.0,100,0.00,,,0.02,0.000000,,2013-06-19 07:33:00,
2013-06-19 03:43:00,58.0,58.0,-100.00,North,0,1.0,5.0,100,0.00,,,0.02,0.000000,,2013-06-19 07:43:00,
2013-06-19 03:53:00,58.0,58.0,-100.00,North,0,1.0,5.0,100,0.00,,,0.02,0.000000,,2013-06-19 07:53:00,
2013-06-19 04:02:00,58.0,58.0,-100.00,North,0,1.0,5.0,100,0.00,,,0.02,0.000000,,2013-06-19 08:02:00,
2013-06-19 04:34:00,57.0,57.0,-100.00,North,0,3.0,7.0,100,0.00,,,0.02,0.000000,,2013-06-19 08:34:00,
2013-06-19 04:43:00,57.0,57.0,-100.00,North,0,3.0,7.0,100,0.00,,,0.02,0.000000,,2013-06-19 08:43:00,
2013-06-19 04:54:00,57.0,57.0,-100.00,North,0,3.0,7.0,100,0.00,,,0.02,0.000000,,2013-06-19 08:54:00,
2013-06-19 05:02:00,57.0,57.0,-100.00,North,0,3.0,7.0,100,0.00,,,0.02,0.000000,,2013-06-19 09:02:00,
2013-06-19 05:44:00,56.0,56.0,-100.00,North,0,2.0,6.0,100,0.00,,,0.02,0.000000,,2013-06-19 09:44:00,
2013-06-19 05:53:00,56.0,56.0,-100.00,North,0,2.0,6.0,100,0.00,,,0.02,0.000000,,2013-06-19 09:53:00,
2013-06-19 06:02:00,56.0,56.0,-100.00,North,0,2.0,6.0,100,0.00,,,0.02,0.000000,,2013-06-19 10:02:00,
2013-06-19 06:33:00,53.0,53.0,-100.00,North,0,2.0,5.0,100,0.00,,,0.02,3.000000,,2013-06-19 10:33:00,
2013-06-19 06:43:00,53.0,53.0,-100.00,North,0,2.0,5.0,100,0.00,,,0.02,3.000000,,2013-06-19 10:43:00,
2013-06-19 06:53:00,53.0,53.0,-100.00,North,0,2.0,5.0,100,0.00,,,0.02,3.000000,,2013-06-19 10:53:00,
2013-06-19 07:02:00,53.0,53.0,-100.00,North,0,2.0,5.0,100,0.00,,,0.02,3.000000,,2013-06-19 11:02:00,
2013-06-19 07:33:00,53.0,53.0,-100.00,North,0,2.0,6.0,100,0.00,,,0.02,46.000000,,2013-06-19 11:33:00,
2013-06-19 07:43:00,53.0,53.0,-100.00,North,0,2.0,6.0,100,0.00,,,0.02,46.000000,,2013-06-19 11:43:00,
2013-06-19 07:54:00,53.0,53.0,-100.00,North,0,2.0,6.0,100,0.00,,,0.02,46.000000,,2013-06-19 11:54:00,
2013-06-19 08:02:00,53.0,53.0,-100.00,North,0,2.0,6.0,100,0.00,,,0.02,46.000000,,2013-06-19 12:02:00,
2013-06-19 08:34:00,57.0,52.0,-100.00,North,0,3.0,6.0,84,0.00,,,0.02,198.000000,,2013-06-19 12:34:00,
2013-06-19 08:44:00,57.0,52.0,-100.00,North,0,3.0,6.0,84,0.00,,,0.02,198.000000,,2013-06-19 12:44:00,
2013-06-19 08:53:00,57.0,52.0,-100.00,North,0,3.0,6.0,84,0.00,,,0.02,198.000000,,2013-06-19 12:53:00,
2013-06-19 09:02:00,57.0,52.0,-100.00,North,0,3.0,6.0,84,0.00,,,0.02,198.000000,,2013-06-19 13:02:00,
2013-06-19 09:43:00,61.0,53.0,-100.00,North,0,4.0,7.0,75,0.00,,,0.02,398.000000,,2013-06-19 13:43:00,
2013-06-19 09:54:00,61.0,53.0,-100.00,North,0,4.0,7.0,75,0.00,,,0.02,398.000000,,2013-06-19 13:54:00,
2013-06-19 10:02:00,61.0,53.0,-100.00,North,0,4.0,7.0,75,0.00,,,0.02,398.000000,,2013-06-19 14:02:00,
2013-06-19 10:34:00,62.0,51.0,-100.00,North,0,3.0,6.0,68,0.00,,,0.02,516.000000,,2013-06-19 14:34:00,
2013-06-19 10:44:00,62.0,51.0,-100.00,North,0,3.0,6.0,68,0.00,,,0.02,516.000000,,2013-06-19 14:44:00,
2013-06-19 10:53:00,62.0,51.0,-100.00,North,0,3.0,6.0,68,0.00,,,0.02,516.000000,,2013-06-19 14:53:00,
2013-06-19 11:02:00,62.0,51.0,-100.00,North,0,3.0,6.0,68,0.00,,,0.02,516.000000,,2013-06-19 15:02:00,
2013-06-19 11:43:00,64.0,55.0,-100.00,North,0,4.0,9.0,73,0.00,,,0.02,588.000000,,2013-06-19 15:43:00,
2013-06-19 11:53:00,64.0,55.0,-100.00,North,0,4.0,9.0,73,0.00,,,0.02,588.000000,,2013-06-19 15:53:00,
2013-06-19 12:02:00,64.0,55.0,-100.00,North,0,4.0,9.0,73,0.00,,,0.02,588.000000,,2013-06-19 16:02:00,
2013-06-19 12:34:00,69.0,58.0,-100.00,North,0,3.0,9.0,67,0.00,,,-99.99,849.000000,,2013-06-19 16:34:00,
2013-06-19 12:43:00,69.0,58.0,-100.00,North,0,3.0,9.0,67,0.00,,,-99.99,849.000000,,2013-06-19 16:43:00,
2013-06-19 12:53:00,69.0,58.0,-100.00,North,0,3.0,9.0,67,0.00,,,-99.99,849.000000,,2013-06-19 16:53:00,
2013-06-19 13:02:00,69.0,58.0,-100.00,North,0,3.0,9.0,67,0.00,,,-99.99,849.000000,,2013-06-19 17:02:00,
2013-06-19 13:43:00,69.0,56.0,-100.00,North,0,4.0,11.0,64,0.00,,,0.02,652.000000,,2013-06-19 17:43:00,
2013-06-19 13:53:00,69.0,56.0,-100.00,North,0,4.0,11.0,64,0.00,,,0.02,652.000000,,2013-06-19 17:53:00,
2013-06-19 14:02:00,69.0,56.0,-100.00,North,0,4.0,11.0,64,0.00,,,0.02,652.000000,,2013-06-19 18:02:00,
2013-06-19 14:33:00,69.0,53.0,-100.00,North,0,4.0,8.0,56,0.00,,,0.02,705.000000,,2013-06-19 18:33:00,
2013-06-19 14:44:00,69.0,53.0,-100.00,North,0,4.0,8.0,56,0.00,,,0.02,705.000000,,2013-06-19 18:44:00,
2013-06-19 14:53:00,69.0,53.0,-100.00,North,0,4.0,8.0,56,0.00,,,0.02,705.000000,,2013-06-19 18:53:00,
2013-06-19 15:01:00,69.0,53.0,-100.00,North,0,4.0,8.0,56,0.00,,,0.02,705.000000,,2013-06-19 19:01:00,
2013-06-19 15:32:00,72.0,52.0,-100.00,North,0,5.0,11.0,50,0.00,,,0.02,905.000000,,2013-06-19 19:32:00,
2013-06-19 15:44:00,72.0,52.0,-100.00,North,0,5.0,11.0,50,0.00,,,0.02,905.000000,,2013-06-19 19:44:00,
2013-06-19 15:53:00,72.0,52.0,-100.00,North,0,5.0,11.0,50,0.00,,,0.02,905.000000,,2013-06-19 19:53:00,
2013-06-19 16:02:00,72.0,52.0,-100.00,North,0,5.0,11.0,50,0.00,,,0.02,905.000000,,2013-06-19 20:02:00,
2013-06-19 16:33:00,72.0,50.0,-100.00,North,0,4.0,10.0,46,0.00,,,0.02,872.000000,,2013-06-19 20:33:00,
2013-06-19 16:43:00,72.0,50.0,-100.00,North,0,4.0,10.0,46,0.00,,,0.02,872.000000,,2013-06-19 20:43:00,
2013-06-19 16:52:00,72.0,50.0,-100.00,North,0,4.0,10.0,46,0.00,,,0.02,872.000000,,2013-06-19 20:52:00,
2013-06-19 17:02:00,72.0,50.0,-100.00,North,0,4.0,10.0,46,0.00,,,0.02,872.000000,,2013-06-19 21:02:00,
2013-06-19 17:33:00,72.0,48.0,-100.00,North,0,3.0,9.0,42,0.00,,,0.02,710.000000,,2013-06-19 21:33:00,
2013-06-19 17:44:00,72.0,48.0,-100.00,North,0,3.0,9.0,42,0.00,,,0.02,710.000000,,2013-06-19 21:44:00,
2013-06-19 17:52:00,72.0,48.0,-100.00,North,0,3.0,9.0,42,0.00,,,0.02,710.000000,,2013-06-19 21:52:00,
2013-06-19 18:02:00,72.0,48.0,-100.00,North,0,3.0,9.0,42,0.00,,,0.02,710.000000,,2013-06-19 22:02:00,
2013-06-19 18:34:00,71.0,48.0,-100.00,North,0,3.0,8.0,44,0.00,,,0.02,538.000000,,2013-06-19 22:34:00,
2013-06-19 18:43:00,71.0,48.0,-100.00,North,0,3.0,8.0,44,0.00,,,0.02,538.000000,,2013-06-19 22:43:00,
2013-06-19 18:53:00,71.0,48.0,-100.00,North,0,3.0,8.0,44,0.00,,,0.02,538.000000,,2013-06-19 22:53:00,
2013-06-19 19:02:00,71.0,48.0,-100.00,North,0,3.0,8.0,44,0.00,,,0.02,538.000000,,2013-06-19 23:02:00,
2013-06-19 19:34:00,70.0,48.0,-100.00,North,0,2.0,6.0,46,0.00,,,0.00,352.000000,,2013-06-19 23:34:00,
2013-06-19 19:43:00,70.0,48.0,-100.00,North,0,2.0,6.0,46,0.00,,,0.00,352.000000,,2013-06-19 23:43:00,
2013-06-19 19:52:00,70.0,48.0,-100.00,North,0,2.0,6.0,46,0.00,,,0.00,352.000000,,2013-06-19 23:52:00,
2013-06-19 20:02:00,70.0,48.0,-100.00,North,0,2.0,6.0,46,0.00,,,0.00,352.000000,,2013-06-20 00:02:00,
2013-06-19 20:34:00,64.0,44.0,-100.00,North,0,1.0,5.0,48,0.00,,,0.00,153.000000,,2013-06-20 00:34:00,
2013-06-19 21:34:00,57.0,49.0,-100.00,North,0,0.0,0.0,74,0.00,,,0.00,11.000000,,2013-06-20 01:34:00,
2013-06-19 21:44:00,57.0,49.0,-100.00,North,0,0.0,0.0,74,0.00,,,0.00,11.000000,,2013-06-20 01:44:00,
2013-06-19 21:53:00,57.0,49.0,-100.00,North,0,0.0,0.0,74,0.00,,,0.00,11.000000,,2013-06-20 01:53:00,
2013-06-19 22:02:00,57.0,49.0,-100.00,North,0,0.0,0.0,74,0.00,,,0.00,11.000000,,2013-06-20 02:02:00,
2013-06-19 22:34:00,57.0,48.0,-100.00,North,0,0.0,0.0,73,0.00,,,0.00,0.000000,,2013-06-20 02:34:00,
2013-06-19 22:43:00,57.0,48.0,-100.00,North,0,0.0,0.0,73,0.00,,,0.00,0.000000,,2013-06-20 02:43:00,
2013-06-19 22:52:00,57.0,48.0,-100.00,North,0,0.0,0.0,73,0.00,,,0.00,0.000000,,2013-06-20 02:52:00,
2013-06-19 23:02:00,57.0,48.0,-100.00,North,0,0.0,0.0,73,0.00,,,0.00,0.000000,,2013-06-20 03:02:00,
2013-06-19 23:33:00,58.0,49.0,-100.00,North,0,2.0,6.0,73,0.00,,,0.00,0.000000,,2013-06-20 03:33:00,
2013-06-19 23:43:00,58.0,49.0,-100.00,North,0,2.0,6.0,73,0.00,,,0.00,0.000000,,2013-06-20 03:43:00,
2013-06-19 23:54:00,58.0,49.0,-100.00,North,0,2.0,6.0,73,0.00,,,0.00,0.000000,,2013-06-20 03:54:00,